This demonstration page uses our WeatherBlox Daily Observations layout. Learn more.

Left ArrowRight Arrow

38.83388, -104.82136

Hourly Observations for January 18, 2017

Temp ( °F °C ) Dew Point ( °F °C ) Humidity (%) Winds ( mph kmh ) Pressure ( in mb ) Visibility ( mi km ) Precip ( " mm )
12:58 am 00:58 Clear 35 1.6 9 -12.7 34 34 NW 6 9 29.70 1006 10 16 0.00 0.00
1:58 am 01:58 Clear 36 2.2 7 -13.7 30 30 NW 3 6 29.66 1005 10 16 0.00 0.00
2:58 am 02:58 Clear 35 1.6 6 -14.2 30 30 Calm 29.65 1004 10 16 0.00 0.00
3:58 am 03:58 Clear 35 1.6 6 -14.6 29 29 NW 3 6 29.65 1004 10 16 0.00 0.00
4:58 am 04:58 Clear 35 1.9 5 -15.1 27 27 WNW 6 9 29.64 1004 10 16 0.00 0.00
5:58 am 05:58 Clear 36 2.3 5 -14.9 27 27 WNW 8 13 29.65 1004 10 16 0.00 0.00
6:58 am 06:58 Clear 37 2.8 4 -15.8 24 24 WNW 10 17 29.62 1003 10 16 0.00 0.00
7:58 am 07:58 Sunny 42 5.6 -4 -20 14 14 N 8 13 29.59 1002 10 16 0.00 0.00
8:58 am 08:58 Sunny 44 6.5 -3 -19.3 14 14 N 10 17 29.56 1001 10 16 0.00 0.00
9:58 am 09:58 Sunny 44 6.9 1 -17.4 16 16 N 13 20 29.58 1002 10 16 0.00 0.00
10:58 am 10:58 Sunny 47 8.5 3 -16 16 16 NNE 9 15 29.54 1000 10 16 0.00 0.00
11:58 am 11:58 Sunny 47 8.3 -2 -18.7 13 13 Calm 29.54 1000 10 16 0.00 0.00
12:58 pm 12:58 Mostly Cloudy 48 9 9 -12.9 20 20 ESE 6 9 29.50 999 10 16 0.00 0.00
1:29 pm 13:29 Partly Cloudy 46 8 16 -9 29 29 SSE 12 19 29.65 1004 10 16 0.00 0.00
1:58 pm 13:58 Mostly Sunny 46 7.8 16 -9.1 29 29 SSE 14 22 29.47 998 10 16 0.00 0.00
2:58 pm 14:58 Sunny 45 7.1 16 -9.1 31 31 S 12 19 29.48 998 10 16 0.00 0.00
3:58 pm 15:58 Sunny 42 5.7 17 -8.5 36 36 SSW 9 15 29.46 998 10 16 0.00 0.00
4:58 pm 16:58 Mostly Sunny 40 4.6 17 -8.3 39 39 SSW 6 9 29.47 998 10 16 0.00 0.00
5:58 pm 17:58 Clear 36 2.1 16 -8.8 45 45 NW 5 7 29.48 998 10 16 0.00 0.00
6:58 pm 18:58 Clear 37 2.8 15 -9.4 41 41 Calm 29.43 997 10 16 0.00 0.00
7:58 pm 19:58 Clear 38 3.6 7 -14 27 27 Calm 29.38 995 10 16 0.00 0.00
8:58 pm 20:58 Clear 38 3.5 6 -14.2 26 26 Calm 29.38 995 10 16 0.00 0.00
9:58 pm 21:58 Clear 38 3.6 5 -14.8 25 25 Calm 29.36 994 10 16 0.00 0.00
10:58 pm 22:58 Clear 40 4.6 5 -15.1 23 23 WNW 6 9 29.31 993 10 16 0.00 0.00
11:58 pm 23:58 Clear 41 5 8 -13.4 25 25 NW 8 13 29.29 992 10 16 0.00 0.00

Powered by AerisWeather